Flag for U.S.A. Weather past 2 weeks in Wichita, Kansas, U.S.A.

Now
95 °F

Sunny.


Feels Like: 99 °F
Forecast: 76 / 97 °F
Wind: 22 mph from South

Location: Wichita Mid-Continent Airport

Current Time: Aug 21, 2014 at 1:44:36 PM

Latest Report: Aug 21, 2014 at 12:53 PM


Visibility: 10 mi

Pressure: 29.84 "Hg

Humidity: 40%

Dew point: 67 °F

Location of WichitaLocation

Historic Weather in Wichita — Graph

°F

Wichita temperature yesterday

Maximum temperature yesterday: 96 °F (at 2:53 PM)
Minimum temperature yesterday: 73 °F (at 5:53 AM)
Average temperature yesterday: 84 °F

Past Weeks' High & Low Weather Summary

 TemperatureHumidityPressure
High97 °F (Aug 6, 3:53 PM)97% (Aug 10, 3:53 AM)30.16 "Hg (Aug 10, 3:53 AM)
Low60 °F (Aug 12, 5:53 AM)31% (Aug 11, 4:53 PM)29.73 "Hg (Aug 19, 5:53 PM)
Average80 °F63%29.91 "Hg
* Reported Aug 6 12:53 PM — Aug 21 12:53 PM, Wichita, Weather by CustomWeather, © 2014

Note: Actual official high and low records may vary slightly from our data, if they occured in-between our weather recording intervals... More about our weather records

Advertising

Wichita weather history for previous 24 hours

 ConditionsComfort  
Time TempWeatherWind HumidityBarometerVisibility
12:53 PM
Aug 21
95 °FSunny.22 mph40%29.84 "Hg10 mi
11:53 AM92 °FSunny.23 mph43%29.85 "Hg10 mi
10:53 AM90 °FSunny.17 mph47%29.86 "Hg10 mi
9:53 AM85 °FSunny.20 mph55%29.86 "Hg10 mi
8:53 AM82 °FPassing clouds.16 mph63%29.86 "Hg10 mi
7:53 AM77 °FPassing clouds.15 mph74%29.86 "Hg10 mi
6:53 AM76 °FPassing clouds.13 mph77%29.84 "Hg10 mi
5:53 AM76 °FPassing clouds.15 mph74%29.83 "Hg10 mi
4:53 AM77 °FPassing clouds.14 mph71%29.82 "Hg10 mi
3:53 AM78 °FPassing clouds.15 mph69%29.81 "Hg10 mi
2:53 AM79 °FPassing clouds.16 mph67%29.80 "Hg10 mi
1:53 AM80 °FPassing clouds.16 mph62%29.82 "Hg10 mi
12:53 AM81 °FPassing clouds.16 mph60%29.82 "Hg10 mi
11:53 PM
Aug 20
82 °FPassing clouds.17 mph56%29.80 "Hg10 mi
10:53 PM82 °FPassing clouds.15 mph56%29.79 "Hg10 mi
9:53 PM83 °FPassing clouds.13 mph53%29.79 "Hg10 mi
8:53 PM86 °FScattered clouds.16 mph48%29.77 "Hg10 mi
7:53 PM88 °FScattered clouds.20 mph46%29.75 "Hg10 mi
6:53 PM91 °FScattered clouds.15 mph44%29.75 "Hg10 mi
5:53 PM94 °FPassing clouds.23 mph40%29.75 "Hg10 mi
4:53 PM94 °FScattered clouds.25 mph41%29.75 "Hg10 mi
3:53 PM96 °FScattered clouds.24 mph40%29.75 "Hg10 mi
2:53 PM96 °FScattered clouds.20 mph40%29.77 "Hg10 mi
1:53 PM94 °FPassing clouds.24 mph43%29.79 "Hg10 mi
Weather by CustomWeather, © 2014

See weather overviewHow to use our weather pages